軌道要素
Epoch 2020 Nov. 7.0 TT = JDT 2459160.5
T 2020 Oct. 20.17954 TT Rudenko
q 0.3422144 (2000.0) P Q
z -0.0007446 Peri. 8.89691 +0.49930234 -0.65324907
+/-0.0000261 Node 53.53551 +0.74502410 -0.01165318
e 1.0002548 Incl. 45.05081 +0.44230788 +0.75705341
From 146 observations 2020 Aug. 2-Oct. 28, mean residual 1".3.
|